Location: Unspecified
(0.0000°N, 0.0000°E)
Time: 21:50:39
(UTC+00:00)

Vanguard 3 - Pass Details

Date: 15 December 2017
Orbit: 508 x 3264 km, 33.3° (Epoch: 24 April)

Event Time Altitude Azimuth Distance (km) Brightness Sun altitude
Rises 18:55:08 0° 315° (NW) 3,385 10.6 -13.7°
Reaches altitude 10° 18:57:11 10° 319° (NW) 2,675 10.0 -14.2°
Maximum altitude 19:03:39 62° 40° (NE) 1,518 8.2 -15.6°
Drops below altitude 10° 19:15:26 10° 118° (ESE) 4,717 10.7 -18.3°
Sets 19:20:15 0° 120° (ESE) 6,161 11.3 -19.4°
